map of RUN home
Great Circle Mapper logo
RUN - Airport
Location
City:  St-Denis, Réunion
Near (Alt.):St-Denis de la Réunion
Name:Roland Garros
Old (Alt.):Gillot
ICAO / IATA:FMEE / RUN

Details
Type:Airport (Aerodrome, Airfield)
Latitude:20°53'24"S (-20.889999)
Longitude:55°30'59"E (55.516389)
Elevation:66 ft (20 m)
Variation:19.08°W (WMM2015 magnetic declination)
0.04° annual change
Runways:2
Longest:10499 × 148 ft (3200 × 45 m), paved

Time
Time Zone:UTC+4
Local Time:

Weather
METAR:FMEE 260600Z 11014KT 9999 FEW020 28/21 Q1015 NOSIG
TAF:FMEE 260500Z 2606/2712 12020KT 9999 FEW020 SCT045
TEMPO 2607/2612 11020G30KT
TEMPO 2700/2706 SHRA

Related Locations
Nearby:
Farthest:CDI: 11676 mi / 18790 km
Cedros [Isla de Cedros Airport], Isla de Cedros, BCN, MX

Find:

   beyond  
but within

Other Information
Maps:
NOTAMs:
Links:
Sources:

  
flag of Réunion   

Airport Diagram

Airport diagram for RUN

Airport diagram (OBSOLETE) from NGA

Sectional Chart

Flight Planning
at skyvector.com

Satellite Image

Google Maps Satellite View

 

Copyright © 2004-2015 Karl L. Swartz. All rights reserved.
The Great Circle Mapper name and logo are trademarks of the Great Circle Mapper.
All other trademarks mentioned herein belong to their respective owners.
Please see credits for attibutions and further copyright information.

  Follow gcmap on Facebook Follow gcmap on Twitter Follow gcmap on Google+

hCard Microformat

Geo Microformat